Weather in Kaftanchikovo

Russia / Tomsk District     56°20′38″N   84°52′02″E
temp.,
°C
wind,
m/s
gust,
m/s
humid.,
%
clouds,
%
prec.,
mm/h
press.,
hPa
HPBL,
m
19 september, sun
sun1901:00+8sw3875100 0.1 1009571
04:00+8ssw3864100 0.0 1008608
07:00+7s496998 0.0 1008610
10:00+8ssw41064100 0.0 1007812
13:00+11ssw5951100 0.0 10061466
16:00+13ssw51149100 0.0 10041963
19:00+8w2593100 1.1 1004331
22:00+7wsw2793100 0.3 1004349
20 september, mon
mon2001:00+6wsw3895100 0.5 1004426
04:00+4sw389727 0.1 1005253
07:00+2sw3109568 0.1 1007365
10:00+5sw41081100 0.0 10081172
13:00+5sw5984100 0.4 10091028
16:00+5sw597899 0.4 10101126
19:00+4sw4986100 0.9 1010756
22:00+3sw3898100 0.6 1010653
21 september, tue
tue2101:00+2sw4894100 0.8 1010614
04:00+2wsw3796100 0.3 1010655
07:00+1wsw3898100 0.5 1011509
10:00+2sw4895100 0.3 1012603
13:00+2sw41197100 0.9 1012642
16:00+3w41098100 0.8 1014699
19:00+3w389595 1.0 1015654
22:00+1wsw399782 0.0 1016393
22 september, wed
wed2201:00+2w2698100 0.2 1017326
04:00+1w3696100 0.6 1017448
07:000wsw3689100 0.6 1018562
10:00+1wsw478698 0.0 1019530
13:00+3wsw368499 0.1 1019903
16:00+4wsw4679100 0.2 1019939
19:00+3sw3694100 0.8 1019510
22:00+2sw3696100 0.1 1019406
23 september, thu
thu2301:00+2sw2598100 0.2 1019252
04:00+1sw2598100 0.2 1019313
07:00+1sw2698100 0.4 1020332
10:00+2ssw2699100 0.3 1020295
13:00+2ssw2597100 0.6 1021345
16:00+3sw139693 0.3 1021302
19:00+2s119493 0.5 102268
22:00+1e119699 0.0 102285